Weather observations for the past three days for
Laurinburg Maxton Airport
| Date | Time (edt) | Wind (mph) | Vis. (mi.) | Weather | Sky Cond. | Temperature (ºF) | Relative Humidity | Wind Chill (°F) | Heat Index (°F) | Pressure | Precipitation (in) | ||||||
|---|---|---|---|---|---|---|---|---|---|---|---|---|---|---|---|---|---|
| Air | Dwpt | 6 hour | altimeter (in) | sea level (mb) | 1 hr | 3 hr | 6 hr | ||||||||||
| Max. | Min. | ||||||||||||||||
| 01 | 16:53 | Vrbl 3 | 10.00 | NULL | NULL | 93.9 | 71.1 | 48% | 101 | 30.03 | 1016.4 | ||||||
| 01 | 15:52 | Calm | 10.00 | Fair | CLR | 93.9 | 70 | 46% | 100 | 30.04 | 1016.8 | ||||||
| 01 | 12:52 | W 3 | 10.00 | A Few Clouds | FEW041 | 90 | 73 | 58% | 98 | 30.08 | 1018.4 | ||||||
| 01 | 10:52 | NW 6 | 10.00 | Fair | CLR | 88 | 75 | 66% | 98 | 30.11 | 1019.4 | ||||||
| 01 | 09:52 | W 5 | 10.00 | Fair | CLR | 84 | 75.9 | 77% | 93 | 30.11 | 1019.1 | ||||||
| 01 | 08:52 | W 5 | 10.00 | Fair | CLR | 79 | 75.9 | 90% | 83 | 30.11 | 1019.2 | ||||||
| 01 | 07:52 | W 3 | 8.00 | Fair | CLR | 75 | 75 | 75 | 71.1 | 100% | 72 | 30.1 | 1018.9 | ||||
| 01 | 05:52 | Calm | 1.00 | Fog/Mist | CLR | 71.1 | 71.1 | 100% | 30.08 | 1018.2 | |||||||
| 01 | 04:52 | Calm | 6.00 | Fog/Mist | CLR | 72 | 72 | 100% | 30.08 | 1018.4 | |||||||
| 01 | 03:52 | Calm | 8.00 | Fair | CLR | 72 | 72 | 100% | 30.09 | 1018.5 | |||||||
| 01 | 02:52 | Calm | 10.00 | Fair | CLR | 73 | 73 | 100% | 30.09 | 1018.7 | |||||||
| 01 | 01:52 | Calm | 10.00 | Fair | CLR | 73.9 | 73.9 | 82 | 73.9 | 100% | 30.1 | 1019.0 | |||||
| 01 | 00:52 | SW 3 | 10.00 | Fair | CLR | 75.9 | 73.9 | 94% | 75 | 30.11 | 1019.2 | ||||||
| 31 | 23:52 | Calm | 10.00 | Fair | CLR | 75.9 | 73.9 | 94% | 75 | 30.1 | 1019.0 | ||||||
| 31 | 22:52 | S 6 | 10.00 | Fair | CLR | 78.1 | 73.9 | 87% | 81 | 30.1 | 1019.1 | ||||||
| 31 | 21:52 | Calm | 10.00 | Fair | CLR | 77 | 73.9 | 90% | 78 | 30.09 | 1018.7 | ||||||
| 31 | 20:52 | Calm | 10.00 | Fair | CLR | 79 | 73.9 | 85% | 83 | 30.07 | 1017.9 | ||||||
| 31 | 19:52 | Calm | 10.00 | Fair | CLR | 82 | 75 | 91.9 | 82 | 79% | 89 | 30.06 | 1017.7 | ||||
| 31 | 18:52 | SE 3 | 10.00 | Fair | CLR | 89.1 | 70 | 53% | 94 | 30.06 | 1017.6 | ||||||
| 31 | 17:52 | NE 5 | 10.00 | Fair | CLR | 91 | 68 | 47% | 95 | 30.06 | 1017.7 | ||||||
| 31 | 16:52 | N 5 | 10.00 | Fair | CLR | 91.9 | 68 | 46% | 96 | 30.07 | 1017.8 | ||||||
| 31 | 15:52 | Calm | 10.00 | Fair | CLR | 89.1 | 70 | 53% | 94 | 30.08 | 1018.3 | ||||||
| 31 | 14:52 | Calm | 10.00 | A Few Clouds | FEW048 | 89.1 | 70 | 53% | 94 | 30.1 | 1018.8 | ||||||
| 31 | 13:52 | Vrbl 3 | 10.00 | A Few Clouds | FEW044 | 90 | 72 | 90 | 71.1 | 56% | 97 | 30.12 | 1019.5 | ||||
| 31 | 12:52 | Calm | 10.00 | A Few Clouds | FEW037 | 88 | 72 | 59% | 95 | 30.13 | 1019.9 | ||||||
| 31 | 11:52 | Calm | 10.00 | Partly Cloudy | SCT031 | 87.1 | 73 | 63% | 95 | 30.14 | 1020.3 | ||||||
| 31 | 09:52 | NW 3 | 10.00 | Fair | CLR | 77 | 75 | 94% | 78 | 30.13 | 1020.2 | ||||||
| 31 | 08:52 | Calm | 10.00 | Fair | CLR | 75 | 73.9 | 96% | 73 | 30.14 | 1020.3 | ||||||
| 31 | 07:52 | Calm | 4.00 | Fog/Mist | SCT002 | 70 | 70 | 72 | 68 | 100% | 30.13 | 1020.1 | |||||
| 31 | 06:52 | N 3 | 0.50 | Fog | VV002 | 70 | 70 | 100% | 30.13 | 1019.9 | |||||||
| 31 | 05:52 | Calm | 8.00 | Fair | CLR | 69.1 | 69.1 | 100% | 30.12 | 1019.5 | |||||||
| 31 | 04:52 | Calm | 7.00 | Fair | CLR | 71.1 | 71.1 | 100% | 30.12 | 1019.5 | |||||||
| 31 | 03:52 | Calm | 2.00 | Fog/Mist | CLR | 70 | 70 | 100% | 30.11 | 1019.4 | |||||||
| 31 | 02:52 | Calm | 7.00 | Fair | CLR | 71.1 | 71.1 | 100% | 30.12 | 1019.5 | |||||||
| 31 | 01:52 | Calm | 8.00 | Fair | CLR | 71.1 | 71.1 | 79 | 71.1 | 100% | 30.13 | 1020.0 | |||||
| 31 | 00:52 | Calm | 10.00 | Fair | CLR | 72 | 72 | 100% | 30.14 | 1020.2 | |||||||
| 30 | 23:52 | Calm | 10.00 | Fair | CLR | 73.9 | 73 | 97% | 30.14 | 1020.2 | |||||||
| 30 | 22:52 | Calm | 10.00 | Fair | CLR | 73.9 | 73 | 97% | 30.14 | 1020.3 | |||||||
| 30 | 21:52 | Calm | 10.00 | Fair | CLR | 75 | 73.9 | 96% | 73 | 30.13 | 1020.0 | ||||||
| 30 | 20:52 | SE 5 | 10.00 | A Few Clouds | FEW032 | 78.1 | 75 | 90% | 81 | 30.12 | 1019.9 | ||||||
| 30 | 19:52 | NE 3 | 10.00 | Fair | CLR | 79 | 75 | 86 | 79 | 88% | 83 | 30.11 | 1019.5 | ||||
| 30 | 17:52 | SE 6 | 10.00 | Fair | CLR | 86 | 73 | 65% | 93 | 30.12 | 1019.7 | ||||||
| 30 | 16:52 | SE 5 | 10.00 | Partly Cloudy | FEW041 SCT070 | 84.9 | 73 | 68% | 92 | 30.12 | 1019.7 | ||||||
| 30 | 15:52 | N 3 | 10.00 | Partly Cloudy | SCT070 | 84.9 | 71.1 | 63% | 90 | 30.14 | 1020.2 | ||||||
| 30 | 14:52 | NE 3 | 10.00 | Overcast | BKN032 BKN041 OVC050 | 84 | 72 | 67% | 90 | 30.15 | 1020.8 | ||||||
| 30 | 13:52 | S 3 | 10.00 | Partly Cloudy | SCT055 | 84 | 71.1 | 84.9 | 72 | 65% | 89 | 30.17 | 1021.4 | ||||
| 30 | 12:52 | Vrbl 3 | 10.00 | Mostly Cloudy | SCT025 BKN032 | 82.9 | 73 | 72% | 89 | 30.19 | 1022.0 | ||||||
| 30 | 11:52 | Calm | 10.00 | Mostly Cloudy | SCT022 BKN028 | 82 | 72 | 72% | 87 | 30.2 | 1022.5 | ||||||
| 30 | 10:52 | Vrbl 5 | 10.00 | A Few Clouds | FEW017 | 80.1 | 73 | 79% | 84 | 30.21 | 1022.8 | ||||||
| 30 | 09:52 | Vrbl 5 | 10.00 | A Few Clouds | FEW010 | 79 | 73 | 82% | 82 | 30.2 | 1022.5 | ||||||
| 30 | 08:52 | Vrbl 3 | 10.00 | Partly Cloudy | SCT005 | 73.9 | 72 | 94% | 30.21 | 1022.9 | |||||||
| 30 | 07:52 | E 5 | 5.00 | Fog/Mist | OVC003 | 72 | 72 | 72 | 71.1 | 100% | 30.21 | 1022.6 | |||||
| 30 | 06:52 | E 3 | 0.75 | Fog/Mist | VV002 | 72 | 72 | 100% | 30.19 | 1022.2 | |||||||
| 30 | 05:52 | E 5 | 0.50 | Fog | VV002 | 71.1 | 71.1 | 100% | 30.19 | 1022.0 | |||||||
| 30 | 04:52 | NE 3 | 4.00 | Fog/Mist | OVC002 | 71.1 | 71.1 | 100% | 30.17 | 1021.4 | |||||||
| 30 | 03:52 | Calm | 7.00 | Fair | CLR | 71.1 | 71.1 | 100% | 30.17 | 1021.5 | |||||||
| 30 | 02:52 | NE 5 | 5.00 | Fog/Mist | FEW002 | 71.1 | 71.1 | 100% | 30.18 | 1021.8 | |||||||
| 30 | 01:52 | E 5 | 4.00 | Fog/Mist | BKN003 OVC023 | 72 | 72 | 75 | 72 | 100% | 30.19 | 1022.1 | |||||
| 30 | 00:52 | E 3 | 7.00 | Partly Cloudy | SCT017 | 72 | 72 | 100% | 30.19 | 1022.2 | |||||||
| 29 | 23:52 | E 3 | 9.00 | A Few Clouds | FEW006 | 73 | 72 | 96% | 30.2 | 1022.3 | |||||||
| 29 | 22:52 | NE 5 | 10.00 | A Few Clouds | FEW011 | 73 | 73 | 100% | 30.2 | 1022.3 | |||||||
| 29 | 21:52 | Calm | 10.00 | Overcast | OVC014 | 73.9 | 73 | 97% | 30.18 | 1021.7 | |||||||
| 29 | 20:52 | SE 3 | 10.00 | A Few Clouds | FEW075 | 73.9 | 73 | 97% | 30.16 | 1021.2 | |||||||
| 29 | 19:52 | E 3 | 10.00 | Mostly Cloudy | BKN060 | 75 | 73 | 82 | 75 | 94% | 73 | 30.16 | 1021.1 | 0.02 | |||
| 29 | 18:52 | E 6 | 10.00 | Fair | CLR | 77 | 73 | 88% | 78 | 30.13 | 1020.0 | ||||||
| 29 | 17:52 | SE 5 | 10.00 | Partly Cloudy | FEW014 FEW022 SCT036 | 79 | 73.9 | 85% | 83 | 30.13 | 1020.1 | ||||||
| Date | Time (edt) | Wind (mph) | Vis. (mi.) | Weather | Sky Cond. | Air | Dwpt | Max. | Min. | Relative Humidity | Wind Chill (°F) | Heat Index (°F) | altimeter (in) | sea level (mb) | 1 hr | 3 hr | 6 hr |
| 6 hour | |||||||||||||||||
| Temperature (ºF) | Pressure | Precipitation (in) | |||||||||||||||